Location: Krakow
(50.0830°N, 19.9170°E)
Time: 10:10:15
(UTC+01:00)

Transit 2A - Pass Details

Date: 17 February 2023
Orbit: 591 x 964 km, 66.7° (Epoch: 21 March)

Event Time Altitude Azimuth Distance (km) Brightness Sun altitude
Rises 14:29:03 0° 232° (SW) 3,093 10.7 19.3°
Reaches altitude 10° 14:31:20 10° 237° (WSW) 2,232 10.2 19.1°
Maximum altitude 14:36:21 53° 315° (NW) 969 6.8 18.6°
Drops below altitude 10° 14:41:58 10° 32° (NNE) 2,495 8.1 18.0°
Sets 14:44:39 0° 37° (NE) 3,491 8.8 17.7°
